Погода в Боровичи

Погода в Боровичи : погода сейчас, прогноз погоды и архив. Всё, что Вы хотите узнать о погоде в Боровичи!

Поиск расширенной информации на нашем сайте:

Другие новости

Новости СМИ2

Главная страница сайта

Новости сайта

03.07.2017

Напоминаем, что на нашем специализированном сайте Метеоцентр.Азия вы можете получить высокодетализированные автоматические прогнозы погоды по пунктам России, СНГ и мира в авиационном формате (включающие направление и скорость ветра, видимость, явления погоды, количество и форму облачности, нижнюю и верхнюю границу облачности).

Рекомендуем: Поставка запчастей КамАЗ. Смотреть спецпредложение на запчасти камаз

Погода в Боровичи - сегодня

Время (UTC), дата Ветер
(°,м/с) 
Видим.   Явления Облачность Т
(°С)
Тd
(°С)
f(%) Тe
(°С)
Pmin
(гПа)
dP
(гПа)
Po
(мм)
O2
(г/м3)
Тmin Tmax R s Состояние
почвы
00 20.09.18 280 (З) 20000 м    8/8 600 м 
[Sc]
+16.5 +13.4 82 +23  1010.2  0.5  750  282           
09 20.09.18 290 (З) 20000 м    3/3 300 м верхняя 
[Cu hum|Ci fib]
+19.2 +12.4 65 +24  1013.4  752  281           
12 20.09.18 290 (З) 20000 м    8/6 600 м средняя, верхняя 
[Cu med, cong|Ac As|Ci fib]
+21.2 +13 59 +27  1013.4  0.1  752  279           
15 20.09.18 270 (З) 20000 м    4/1 2000 м средняя, верхняя 
[Ac cuf|Ci fib]
+20.2 +13 63 +26  1013.6  0.2  752  280           
21 20.09.18 тихо ()   20000 м    3/0 верхняя 
[Ci fib]
+15.6 +12.9 84 +21  1013.9  0.1  753  284           
00 21.09.18 тихо ()   20000 м    ясно 
+13.9 +12.4 91 +18  1014.2  0.2  753  286           
09 21.09.18 280 (З) 20000 м    6/0 верхняя 
[Cc]
+21 +13.5 62 +27  1014.9  0.1  753  279           
12 21.09.18 280 (З) 20000 м    8/3 600 м средняя, верхняя 
[Cu med, cong|Ac trans|Ci]
+23.6 +13.2 52 +29  1014.4  -0.4  753  277           
15 21.09.18 290 (З) 20000 м    6/1 600 м верхняя 
[Cu med, cong|Ci fib]
+21.6 +14.5 64 +29  1014.4  753  278           
21 21.09.18 110 (В) 20000 м    3/0 верхняя 
[Ci fib]
+14.1 +13.2 94 +21  1013.5  -1.1  752  286           
00 22.09.18 090 (В) 20000 м    ясно 
+14.7 +13.6 93 +22  1012.5  -1  751  285           
03 22.09.18 150 (ЮВ) 20000 м    ясно 
+15.2 +13.6 90 +22  1010.6  -1.9  750  284  +14.1         
06 22.09.18 170 (Ю) 20000 м    ясно 
+17.2 +13.1 77 +24  1008.9  -1.6  749  281  +14.1         
09 22.09.18 170 (Ю) 20000 м    ясно 
+23.5 +12.9 51 +29  1006.1  -2.4  747  275           
12 22.09.18 190 (Ю) 20000 м    ясно 
+26.1 +9.7 36 +27  1004.1  -2  746  272           
21 22.09.18 210 (ЮЗ) 20000 м  {ливн. осадки}  10/3 1000 м средняя 
[Sc|Ac As]
+11.2 +10.3 94 +14  1007.1  -0.5  747  287           
03 23.09.18 200 (Ю) 10 км  слаб. ливневой дождь  10/8 540 м кучево-дожд. 
[Cb calv]
+10.1 +10.1 100 +12  1004.9  -1.4  746  288  +9.9       
09 23.09.18 250 (З) 20000 м    8/8 600 м 
[Sc]
+13.5 +8.1 70 +14  1004.1  -0.4  745  285           
12 23.09.18 250 (З) 20000 м    6/6 600 м 
[Cu med, cong]
+15.1 +6.2 55 +16  1004.2  0.2  745  284           
15 23.09.18 230 (ЮЗ) 20000 м    3/3 600 м 
[Sc]
+12.3 +5.6 64 +14  1004.2  -0.1  745  286      0.0     
18 23.09.18 200 (Ю) 20000 м    ясно 
+8.9 +5.6 80 +9  1004.1  -0.2  745  290    +15.6       
21 23.09.18 210 (ЮЗ) 20000 м    6/6 1000 м 
[Sc]
+7.7 +5.9 88 +9  1004.4  0.2  745  291           
00 24.09.18 100 (В) 20000 м    6/6 600 м 
[Sc]
+6.7 +5.8 94 +8  1004.4  745  292           
09 24.09.18 180 (Ю) 20000 м    9/8 300 м средняя 
[Sc|Ac As]
+10.4 +6.5 77 +10  1004  -0.7  745  288           
03 25.09.18 320 (СЗ) 20000 м  {ливн. осадки}  10/10 1200 м 
[Sc]
+7.3 +5.8 90 +7  1000.6  0.8  742  290  +6.9       
Время (UTC), дата Ветер
(°,м/с) 
Видим.   Явления Облачность Т
(°С)
Тd
(°С)
f(%) Тe
(°С)
Pmin
(гПа)
dP
(гПа)
Po
(мм)
O2
(г/м3)
Тmin Tmax R s Состояние
почвы

Для получения пояснительной информации подведите курсор к названию столбца.

ПОГОДА в Боровичи - архив

Всё, что Вы хотите узнать о погоде в Боровичи - удобно и подробно!

Выберите нужную дату (начиная с 1 января 2015* года) и нажмите кнопку "Найти".
Будут отображены архивные сводки погоды по пункту Боровичи, начиная с указанной даты.


Отображать данные в формате CSV (для использования в таблицах Excel)


Внимание! Наш архив погоды предназначен исключительно для личного некоммерческого использования в познавательных целях. Если Вам необходимы официальные справки о состоянии погоды (для производственных, юридических, коммерческих и т.п. целей), обращайтесь в органы Росгидромета.

*Примечание: данная дата относится к архиву по метеостанциям СССР (Россия, СНГ, Балтия).
Архив по метеостанциям Зарубежной Европы и Азии (кроме Китая) хранится 10 дней, по другим регионам земного шара (Китай, Африка, Америка, Австралия, Океания) - 1 день.

Боровичи - район местоположения метеостанции


Название, широта, долгота, высота метеостанции:
Боровичи 58.4°ш. 33.9°д. 89 м над ур. моря [Российская Федерация]

Дополнительная информация

В oтличие oт бoльшинства пoгoдных сайтoв мы публикуем пoдрoбную метеoинфoрмацию в детальнoм прoфессиoнальнoм фoрмате.

Характеристики температуры и влажнoсти вoздуха измеряются на высoте 2 м в тени вдали oт зданий и деревьев.
Скoрoсть ветра измеряется на высoте 10 м (на урoвне рoста челoвека скoрoсть ветра ниже в 1.5-2 раза). Если метеoстанция нахoдится в гoрoде или в лесу, тo скoрoсть ветра занижена на 2-4 м/с пo сравнению с oткрытым местoм. Скoрoсть ветра над акватoриями крупных рек и oзёр, а также на вершинах хoлмoв на 2-5 м/с выше, чем в oбычных услoвиях.
Атмoсфернoе давление в разных тoчках местнoсти мoжет значительнo oтличаться oт давления на метеoстанции, в зависимoсти oт услoвий рельефа (при пoдъёме на 10 м давление пoнижается примернo на 1 мм рт.ст.).